Home > Weather > Volgograd > Past weeks

Flag for Russia Weather for the Past 2 Weeks in Volgograd, Russia

Now
55 °F

Thunderstorms. Partly sunny.


Feels Like: 51 °F
Forecast: 49 / 59 °F
Wind: 17 mph from Northwest

Location: Volgograd Airport

Current Time: Apr 30, 2016 at 4:39:34 PM

Latest Report: Apr 30, 2016 at 4:00 PM


Visibility: N/A

Pressure: 30.01 "Hg

Humidity: 77%

Dew Point: 48 °F

Location of VolgogradLocation

Historic Weather in Volgograd — Graph

°F

Volgograd Temperature Yesterday

Maximum temperature yesterday: 68 °F (at 2:00 PM)
Minimum temperature yesterday: 46 °F (at 4:30 AM)
Average temperature yesterday: 59 °F

High & Low Weather Summary for the Past Weeks

 TemperatureHumidityPressure
High75 °F (Apr 19, 1:30 PM)100% (Apr 27, 12:00 AM)30.07 "Hg (Apr 27, 12:00 AM)
Low37 °F (Apr 22, 4:30 AM)22% (Apr 17, 5:00 PM)29.56 "Hg (Apr 21, 8:30 AM)
Average56 °F66%29.89 "Hg
* Reported Apr 15 3:00 PM — Apr 30 3:30 PM, Volgograd, Weather by CustomWeather, © 2016

Note: Actual official high and low records may vary slightly from our data, if they occured in-between our weather recording intervals... More about our weather records

Advertising

Volgograd Weather History for the Previous 24 Hours

Scroll right to see more
 ConditionsComfort  
Time TempWeatherWind HumidityBarometerVisibility
3:30 PM
Sat, Apr 30
59 °FThunderstorms. Partly sunny.6 mph63%30.01 "HgN/A
3:00 PM59 °FThundershowers. Partly sunny.8 mph63%30.01 "HgN/A
2:30 PM64 °FThunderstorms. Partly sunny.8 mph56%30.01 "HgN/A
2:00 PM64 °FThundershowers. Partly sunny.6 mph60%30.01 "HgN/A
1:30 PM64 °FPartly sunny.8 mph56%30.01 "HgN/A
1:00 PM64 °FPartly sunny.6 mph56%30.01 "HgN/A
12:30 PM63 °FPartly sunny.3 mph68%30.01 "HgN/A
12:00 PM63 °FPartly sunny.3 mph68%30.01 "HgN/A
11:30 AM63 °FPartly sunny.3 mph64%30.04 "HgN/A
11:00 AM61 °FPartly sunny.3 mph63%30.04 "HgN/A
10:30 AM61 °FScattered clouds.3 mph72%30.04 "HgN/A
10:00 AM59 °FScattered clouds.6 mph68%30.04 "HgN/A
9:30 AM57 °FScattered clouds.6 mph72%30.04 "HgN/A
9:00 AM55 °FScattered clouds.10 mph77%30.04 "HgN/A
8:30 AM54 °FPartly sunny.10 mph82%30.04 "HgN/A
8:00 AM52 °FPartly sunny.10 mph88%30.04 "HgN/A
7:30 AM50 °FLow clouds.13 mph94%30.04 "Hg4 mi
7:00 AM50 °FFog.10 mph94%30.04 "Hg3 mi
6:00 AM50 °FFog.13 mph94%30.04 "Hg3 mi
5:30 AM52 °FLow clouds.10 mph88%30.04 "Hg4 mi
5:00 AM52 °FFog.8 mph88%30.04 "Hg3 mi
4:30 AM52 °FFog.8 mph94%30.04 "Hg3 mi
4:00 AM52 °FPartly sunny.8 mph94%30.04 "Hg4 mi
3:30 AM52 °FFog.8 mph94%30.04 "Hg3 mi
2:30 AM52 °FFog.8 mph94%30.04 "Hg3 mi
2:00 AM52 °FFog.8 mph94%30.04 "Hg3 mi
1:30 AM52 °FClear.8 mph94%30.04 "Hg10 mi
1:00 AM54 °FPassing clouds.10 mph94%30.04 "HgN/A
12:30 AM54 °FPassing clouds.10 mph94%30.04 "HgN/A
12:00 AM55 °FPartly cloudy.10 mph88%30.04 "HgN/A
11:30 PM
Fri, Apr 29
55 °FPartly cloudy.13 mph94%30.04 "HgN/A
11:00 PM57 °FPartly cloudy.10 mph88%30.04 "HgN/A
10:30 PM57 °FPartly cloudy.10 mph82%30.07 "HgN/A
10:00 PM59 °FPassing clouds.10 mph77%30.07 "HgN/A
9:30 PM59 °FPassing clouds.6 mph77%30.07 "HgN/A
9:00 PM61 °FPassing clouds.8 mph77%30.07 "HgN/A
8:30 PM59 °FPassing clouds.8 mph77%30.07 "HgN/A
8:00 PM61 °FPassing clouds.10 mph68%30.07 "HgN/A
7:30 PM63 °FPassing clouds.3 mph52%30.04 "HgN/A
7:00 PM61 °FPassing clouds.3 mph55%30.04 "HgN/A
6:30 PM63 °FPassing clouds.8 mph56%30.04 "HgN/A
6:00 PM64 °FPartly sunny.3 mph56%30.04 "HgN/A
5:30 PM66 °FPartly sunny.3 mph52%30.04 "HgN/A
5:00 PM66 °FPartly sunny.6 mph52%30.04 "HgN/A
4:30 PM66 °FPartly sunny.6 mph52%30.04 "HgN/A
4:00 PM68 °FPartly sunny.6 mph43%30.04 "HgN/A
Weather by CustomWeather, © 2016

See weather overviewHow to use our weather pages